Total_Precipitation_Accumulation
0.61 0.68 0.58 0.41 0.33 0.34 0.37 0.37 0.40 0.48 0.58 0.64 0.61 0.55 0.52 0.57 0.70 0.86 0.92 1.01 1.10 1.14 1.21 1.23 1.22 1.26 1.31 1.26 1.34 1.47 1.63 1.77 1.64 1.53 1.45 1.41 1.34 1.24 1.11 0.91 0.79 0.70 0.62
1.06 1.13 0.98 0.60 0.39 0.31 0.26 0.25 0.32 0.44 0.55 0.60 0.57 0.52 0.50 0.56 0.69 0.85 1.00 1.20 1.33 1.30 1.22 1.15 1.07 1.13 1.23 1.24 1.33 1.36 1.42 1.64 1.63 1.61 1.60 1.62 1.53 1.35 1.25 1.11 0.91 0.79 0.75
0.98 1.07 0.86 0.47 0.28 0.22 0.20 0.24 0.38 0.50 0.54 0.55 0.56 0.61 0.71 0.80 0.91 1.04 1.10 1.24 1.29 1.20 1.16 1.09 1.02 1.02 1.07 1.17 1.28 1.32 1.32 1.38 1.53 1.57 1.60 1.67 1.65 1.45 1.27 1.15 1.05 1.07 0.98
0.56 0.71 0.57 0.34 0.24 0.20 0.20 0.25 0.31 0.34 0.40 0.49 0.62 0.80 0.91 0.98 1.01 1.08 1.07 1.05 1.05 0.96 0.90 0.85 0.89 1.00 1.06 1.06 1.06 1.10 1.15 1.25 1.34 1.41 1.50 1.62 1.67 1.60 1.38 1.25 1.24 1.20 1.12
0.45 0.56 0.45 0.29 0.23 0.17 0.15 0.17 0.21 0.29 0.34 0.47 0.64 0.74 0.73 0.76 0.83 0.90 0.92 0.89 0.85 0.80 0.71 0.58 0.58 0.75 0.89 0.92 0.86 0.91 0.96 1.04 1.10 1.20 1.31 1.46 1.56 1.64 1.46 1.28 1.24 1.31 1.27
0.38 0.50 0.45 0.36 0.25 0.17 0.14 0.17 0.25 0.31 0.36 0.43 0.52 0.53 0.49 0.39 0.37 0.40 0.48 0.57 0.63 0.63 0.56 0.52 0.51 0.52 0.55 0.57 0.62 0.67 0.74 0.82 0.95 1.11 1.23 1.32 1.35 1.45 1.54 1.51 1.45 1.41 1.41
0.39 0.49 0.50 0.46 0.37 0.30 0.22 0.24 0.31 0.36 0.40 0.45 0.44 0.45 0.46 0.46 0.30 0.21 0.22 0.33 0.42 0.45 0.47 0.51 0.41 0.36 0.41 0.41 0.42 0.40 0.42 0.48 0.60 0.83 1.05 1.15 1.27 1.30 1.51 1.57 1.59 1.70 1.71
0.34 0.46 0.53 0.52 0.49 0.49 0.41 0.40 0.44 0.47 0.50 0.53 0.49 0.49 0.53 0.50 0.35 0.24 0.19 0.20 0.32 0.37 0.42 0.45 0.46 0.47 0.48 0.49 0.47 0.45 0.40 0.38 0.39 0.47 0.69 0.94 1.15 1.38 1.46 1.54 1.62 1.69 1.72
0.31 0.45 0.55 0.56 0.57 0.56 0.56 0.57 0.60 0.65 0.61 0.57 0.57 0.60 0.64 0.66 0.49 0.28 0.20 0.27 0.40 0.43 0.46 0.48 0.49 0.50 0.48 0.37 0.40 0.43 0.44 0.45 0.37 0.37 0.47 0.69 0.89 1.00 1.22 1.42 1.55 1.48 1.43
0.45 0.50 0.62 0.72 0.79 0.79 0.77 0.74 0.75 0.86 0.81 0.75 0.68 0.69 0.74 0.81 0.69 0.37 0.25 0.36 0.55 0.61 0.65 0.62 0.50 0.43 0.38 0.28 0.34 0.46 0.45 0.45 0.50 0.46 0.40 0.47 0.61 0.75 0.81 0.93 1.15 1.26 1.17
0.52 0.59 0.72 0.90 0.97 0.95 0.98 0.95 0.93 0.95 0.97 0.94 0.84 0.82 0.85 0.89 0.81 0.47 0.34 0.45 0.64 0.75 0.77 0.73 0.66 0.47 0.33 0.28 0.29 0.39 0.42 0.45 0.58 0.62 0.61 0.61 0.72 0.84 0.81 0.77 0.86 0.99 1.01
0.63 0.77 0.91 1.03 0.89 0.83 1.05 1.09 1.12 1.19 1.16 1.09 1.03 0.95 0.95 0.98 0.87 0.60 0.37 0.45 0.63 0.84 0.91 0.88 0.80 0.56 0.40 0.34 0.32 0.32 0.30 0.32 0.44 0.56 0.60 0.59 0.64 0.74 0.83 0.81 0.85 0.88 0.91
0.70 0.81 0.91 0.98 1.02 1.07 1.15 1.16 1.20 1.25 1.26 1.18 1.14 1.09 1.04 1.07 1.04 0.64 0.44 0.51 0.62 0.79 1.00 1.01 0.83 0.64 0.54 0.43 0.40 0.41 0.37 0.35 0.46 0.52 0.52 0.53 0.55 0.66 0.86 0.98 1.00 1.00 0.97
0.72 0.73 0.79 0.92 1.03 1.14 1.29 1.33 1.33 1.30 1.30 1.27 1.19 1.12 1.10 1.16 1.20 0.95 0.69 0.67 0.75 0.82 0.95 1.01 0.89 0.74 0.65 0.57 0.52 0.50 0.47 0.48 0.54 0.56 0.57 0.62 0.65 0.73 0.81 0.90 0.98 1.01 0.97
0.84 0.84 0.85 0.94 1.10 1.20 1.30 1.36 1.34 1.36 1.21 1.15 1.05 1.00 1.01 1.10 1.11 0.92 0.82 0.84 0.96 1.02 1.00 1.06 1.08 0.97 0.86 0.76 0.73 0.75 0.75 0.70 0.64 0.68 0.72 0.75 0.74 0.75 0.81 0.86 0.92 0.94 0.89
1.03 0.97 0.96 1.02 1.15 1.25 1.31 1.26 1.06 0.98 0.79 0.70 0.68 0.65 0.69 0.74 0.85 0.73 0.64 0.74 0.90 0.97 0.95 1.00 1.10 1.10 1.03 0.96 0.91 0.93 0.94 0.89 0.83 0.84 0.83 0.83 0.81 0.78 0.80 0.85 0.87 0.87 0.84
1.19 1.08 1.01 0.97 1.03 1.10 1.20 1.32 1.34 1.09 0.81 0.63 0.56 0.48 0.49 0.56 0.65 0.65 0.61 0.67 0.78 0.83 0.86 0.93 1.02 1.09 1.07 1.04 0.99 0.98 0.95 0.97 0.97 0.93 0.88 0.88 0.85 0.80 0.77 0.80 0.81 0.84 0.84
1.17 1.06 0.97 0.96 1.00 1.03 1.09 1.21 1.36 1.37 1.13 0.80 0.64 0.54 0.46 0.47 0.50 0.56 0.58 0.64 0.74 0.79 0.82 0.88 0.94 0.99 1.01 1.02 1.02 1.02 0.99 1.01 0.98 0.94 0.89 0.87 0.85 0.79 0.79 0.79 0.75 0.75 0.80
1.06 0.99 0.91 0.94 0.96 0.95 1.00 1.08 1.19 1.26 1.19 1.03 0.86 0.68 0.54 0.45 0.49 0.54 0.54 0.62 0.78 0.82 0.81 0.85 0.87 0.88 0.92 0.95 0.96 1.00 0.99 0.95 0.92 0.94 0.89 0.84 0.82 0.80 0.78 0.77 0.77 0.77 0.77
1.02 0.82 0.75 0.79 0.84 0.86 0.94 1.01 1.06 1.13 1.12 1.06 0.95 0.72 0.54 0.49 0.57 0.63 0.63 0.73 0.83 0.82 0.78 0.81 0.77 0.76 0.81 0.86 0.90 0.94 0.93 0.93 0.93 0.89 0.86 0.81 0.77 0.75 0.72 0.72 0.74 0.74 0.73
0.96 0.81 0.61 0.60 0.70 0.77 0.86 0.94 0.98 0.99 1.02 1.01 0.86 0.61 0.42 0.39 0.52 0.66 0.76 0.81 0.81 0.80 0.75 0.70 0.67 0.68 0.72 0.76 0.78 0.81 0.84 0.89 0.87 0.84 0.86 0.81 0.75 0.74 0.73 0.74 0.71 0.71 0.73
0.92 0.84 0.68 0.59 0.62 0.68 0.76 0.86 0.89 0.86 0.86 0.85 0.75 0.55 0.40 0.37 0.50 0.64 0.71 0.70 0.69 0.71 0.67 0.63 0.61 0.63 0.64 0.67 0.71 0.75 0.78 0.80 0.80 0.81 0.82 0.81 0.80 0.78 0.77 0.80 0.78 0.76 0.76
0.88 0.80 0.69 0.62 0.64 0.62 0.66 0.77 0.78 0.75 0.73 0.68 0.62 0.55 0.46 0.48 0.55 0.63 0.65 0.64 0.63 0.61 0.58 0.58 0.55 0.54 0.58 0.60 0.61 0.64 0.69 0.68 0.69 0.70 0.74 0.77 0.77 0.76 0.79 0.81 0.78 0.74 0.72
0.80 0.76 0.64 0.59 0.61 0.66 0.67 0.70 0.66 0.62 0.60 0.56 0.52 0.50 0.49 0.53 0.56 0.57 0.58 0.57 0.56 0.52 0.48 0.49 0.49 0.49 0.52 0.56 0.55 0.53 0.55 0.56 0.57 0.60 0.63 0.66 0.67 0.72 0.78 0.80 0.77 0.73 0.76
0.77 0.78 0.68 0.58 0.57 0.60 0.62 0.63 0.60 0.59 0.54 0.47 0.46 0.47 0.49 0.51 0.52 0.55 0.55 0.52 0.48 0.46 0.42 0.43 0.47 0.47 0.43 0.44 0.44 0.43 0.45 0.42 0.42 0.49 0.58 0.65 0.64 0.66 0.72 0.74 0.76 0.75 0.80
0.70 0.73 0.67 0.57 0.52 0.53 0.54 0.61 0.62 0.57 0.51 0.44 0.43 0.45 0.43 0.40 0.40 0.42 0.41 0.39 0.38 0.37 0.38 0.39 0.41 0.41 0.40 0.38 0.37 0.36 0.33 0.31 0.31 0.37 0.42 0.51 0.58 0.60 0.65 0.71 0.70 0.73 0.76